GAOFEN-1 03

Last updated on Thu Oct 30 2025 00:02:32 GMT+0000 (Coordinated Universal Time)

1 43260U 18031B 25302.51613657 .00001305 00000+0 19519-3 0 9990 2 43260 98.0861 0.1547 0004308 80.8611 279.3086 14.76403183408650
UTC large
Height (km)
Speed (km/s)
/
Latitude / Longitude
Inclination (degrees)
Orbital Period (minutes)
Azimuth
Elevation
Range (km)
Doppler Factor

Next 0 passes for location: London (51.5072 / 0.1276)

Sorry there are no passes over London.